"Pseudo-MPEC" for P222GIS

Created 2024 Nov 30 7:31:20 UT using Find_Orb

Click here for an explanation of pseudo-MPECs

 
 Astrometry: 
     P222GIS* C2024 11 29.36983005 12 40.475+11 12 48.71   ~BTCl 22.25wXNEOCPF52
     P222GIS  C2024 11 29.38058905 12 39.523+11 12 39.03   ~BTCl 22.28wXNEOCPF52
     P222GIS  C2024 11 29.40215505 12 37.630+11 12 19.00   ~BTCl 22.12wXNEOCPF52

Station data:
(F52) Pan-STARRS 2, Haleakala  (N20.707382 W156.255910)  US/Hawaii.
   Observers J. Bulger, T. Dukes, T. Lowe, A. Schultz, M. Willman. Measurers
   K. Chambers, S. Chastel, T. de Boer, L. Denneau, J. Fairlamb, H.
   Flewelling, M. Huber, C.-C. Lin, E. Magnier, Y. Ramanjooloo, R. Wainscoat,
   R. Weryk. 1.8-m Ritchey-Chrétien + CCD.

Orbital elements:  P222GIS
   Perihelion 2025 Jun 19.01248 +/- 229 TT =  0:17:58 (JD 2460845.51248)
Epoch 2024 Nov 29.0 TT = JDT 2460643.5   Earth MOID: 0.0547      AutoNEOCP
M 288.37045268 +/- 60               (J2000 ecliptic)
n   0.35457980 +/- 0.245            Peri.  324.04779 +/- 90
a   1.97693951 +/- 0.909            Node   237.52357 +/- 46
e   0.4914753 +/- 0.264             Incl.   22.63704 +/- 32
P   2.77965                H 19.57  G  0.15   U 11.8  SR
q 1.00532240 +/- 0.811    Q 2.94855663 +/- 35.4
From 3 observations 2024 Nov. 29 (46.5 min); mean residual 0".07
Residuals in arcseconds: 
241129 F52  .04+  .09-    241129 F52  .06-  .13+    241129 F52  .02+  .04-    

Ephemerides (geocentric):
Date (UTC) HH   RA             Dec           delta  r     elong  mag " sig PA
---- --------  ------------   ------------  ------ ------ -----  --- --------
2024 11 30 08  05 11 17.331   +10 57 57.90  1.1611 2.1285 164.8 22.1  582  77
2024 11 30 09  05 11 13.714   +10 57 19.24  1.1608 2.1283 164.8 22.1  632  77
2024 11 30 10  05 11 10.095   +10 56 40.56  1.1605 2.1280 164.8 22.1  687  76
2024 11 30 11  05 11 06.473   +10 56 01.88  1.1602 2.1278 164.8 22.1  747  75
2024 11 30 12  05 11 02.849   +10 55 23.19  1.1599 2.1276 164.9 22.0  813  75
2024 11 30 13  05 10 59.221   +10 54 44.50  1.1596 2.1273 164.9 22.0  887  74
2024 11 30 14  05 10 55.592   +10 54 05.80  1.1593 2.1271 164.9 22.0  970  73
2024 11 30 15  05 10 51.960   +10 53 27.10  1.1590 2.1269 165.0 22.0 1064  73
2024 11 30 16  05 10 48.325   +10 52 48.39  1.1588 2.1267 165.0 22.0 1172  72
2024 11 30 17  05 10 44.687   +10 52 09.67  1.1585 2.1264 165.0 22.0 1296  71
2024 11 30 18  05 10 41.047   +10 51 30.95  1.1582 2.1262 165.0 22.0 1441  70
2024 11 30 19  05 10 37.405   +10 50 52.22  1.1579 2.1260 165.1 22.0 1613  70
2024 11 30 20  05 10 33.759   +10 50 13.49  1.1576 2.1257 165.1 22.0 1821  69
2024 11 30 21  05 10 30.112   +10 49 34.75  1.1573 2.1255 165.1 22.0 2078  68
2024 11 30 22  05 10 26.462   +10 48 56.00  1.1570 2.1253 165.1 22.0 2402  67
2024 11 30 23  05 10 22.809   +10 48 17.25  1.1567 2.1250 165.2 22.0 2825  67
2024 12 01 00  05 10 19.153   +10 47 38.49  1.1564 2.1248 165.2 22.0 3400  66
2024 12 01 01  05 10 15.496   +10 46 59.73  1.1561 2.1246 165.2 22.0 4226  65
2024 12 01 02  05 10 11.835   +10 46 20.97  1.1559 2.1243 165.2 22.0 5509  64
2024 12 01 03  05 10 08.172   +10 45 42.19  1.1556 2.1241 165.3 22.0 7758  63
2024 12 01 04  05 10 04.507   +10 45 03.42  1.1553 2.1239 165.3 22.0 209'  62
2024 12 01 05  05 10 00.839   +10 44 24.64  1.1550 2.1237 165.3 22.0 430'  63
2024 12 01 06  05 09 57.169   +10 43 45.85  1.1547 2.1234 165.3 22.0 795'  73
2024 12 01 07  05 09 53.496   +10 43 07.06  1.1544 2.1232 165.4 22.0 945'  78
2024 12 01 08  05 09 49.821   +10 42 28.26  1.1542 2.1230 165.4 22.0  17d  80
2024 12 01 09  05 09 46.143   +10 41 49.45  1.1539 2.1227 165.4 22.0  17d  81
2024 12 01 10  05 09 42.463   +10 41 10.65  1.1536 2.1225 165.4 22.0  17d  82
2024 12 01 11  05 09 38.780   +10 40 31.83  1.1533 2.1223 165.5 22.0  18d  82
2024 12 01 12  05 09 35.095   +10 39 53.02  1.1530 2.1220 165.5 22.0  18d  83
2024 12 01 13  05 09 31.407   +10 39 14.20  1.1527 2.1218 165.5 22.0  18d  97
2024 12 01 14  05 09 27.717   +10 38 35.37  1.1525 2.1216 165.5 22.0  18d  97
2024 12 01 15  05 09 24.025   +10 37 56.54  1.1522 2.1214 165.6 22.0  18d  97
2024 12 01 16  05 09 20.330   +10 37 17.70  1.1519 2.1211 165.6 22.0  18d  97
2024 12 01 17  05 09 16.633   +10 36 38.86  1.1516 2.1209 165.6 22.0  17d  97
2024 12 01 18  05 09 12.933   +10 36 00.02  1.1513 2.1207 165.6 22.0  17d  97
2024 12 01 19  05 09 09.231   +10 35 21.17  1.1511 2.1204 165.7 22.0  17d  97
2024 12 01 20  05 09 05.527   +10 34 42.31  1.1508 2.1202 165.7 22.0  17d  97
2024 12 01 21  05 09 01.820   +10 34 03.45  1.1505 2.1200 165.7 22.0  17d  97
2024 12 01 22  05 08 58.111   +10 33 24.59  1.1502 2.1197 165.7 22.0  17d  97
2024 12 01 23  05 08 54.400   +10 32 45.73  1.1500 2.1195 165.7 22.0  17d  97
2024 12 02 00  05 08 50.686   +10 32 06.85  1.1497 2.1193 165.8 22.0  17d  97
2024 12 02 01  05 08 46.970   +10 31 27.98  1.1494 2.1190 165.8 22.0  17d  97
2024 12 02 02  05 08 43.251   +10 30 49.10  1.1491 2.1188 165.8 22.0  17d  97
2024 12 02 03  05 08 39.530   +10 30 10.22  1.1489 2.1186 165.8 22.0  17d  97
2024 12 02 04  05 08 35.807   +10 29 31.33  1.1486 2.1183 165.8 22.0  17d  97
2024 12 02 05  05 08 32.081   +10 28 52.44  1.1483 2.1181 165.9 22.0  17d  97
2024 12 02 06  05 08 28.354   +10 28 13.54  1.1480 2.1179 165.9 22.0  17d  96
2024 12 02 07  05 08 24.623   +10 27 34.65  1.1478 2.1177 165.9 22.0  17d  96